JH4XSY-13 Weather Reports


Display with metric or nautical units.
time (UTC)temp
F
wind
direction
speed
MPH
gust
MPH
rain 1hr
in
rain 24hr
in
rain mn
in
humidity
%
barometer
mb
20190116161309 44 0.0 0.0 0.00 0.00 0.00 39 1007.9
20190116154304 45 0.0 0.0 0.00 0.00 0.00 39 1008.1
20190116151305 46 0.0 0.0 0.00 0.00 0.00 36 1008.4
20190116144304 47 0.0 0.0 0.00 0.00 0.00 35 1008.4
20190116141304 47 0.0 0.0 0.00 0.00 0.00 34 1008.4
20190116134302 47 0.0 0.0 0.00 0.00 0.00 34 1008.6
20190116131306 47 0.0 0.0 0.00 0.00 0.00 32 1008.6
20190116124306 48 0.0 0.0 0.00 0.00 0.00 31 1008.5
20190116121303 48 0.0 0.0 0.00 0.00 0.00 31 1008.5
20190116114305 49 0.0 0.0 0.00 0.00 0.00 32 1008.5
20190116111305 49 0.0 0.0 0.00 0.00 0.00 31 1008.5
20190116104302 49 0.0 0.0 0.00 0.00 0.00 29 1008.6
20190116101306 49 0.0 0.0 0.00 0.00 0.00 29 1008.2
20190116094306 50 0.0 0.0 0.00 0.00 0.00 28 1008.0
20190116091303 50 0.0 0.0 0.00 0.00 0.00 28 1007.9
20190116084306 51 0.0 0.0 0.00 0.00 0.00 27 1007.7
20190116081303 51 0.0 0.0 0.00 0.00 0.00 27 1007.3
20190116074306 52 0.0 0.0 0.00 0.00 0.00 27 1007.2
20190116071304 52 0.0 0.0 0.00 0.00 0.00 26 1006.8
20190116064302 53 0.0 0.0 0.00 0.00 0.00 26 1006.7
20190116061305 54 0.0 0.0 0.00 0.00 0.00 25 1006.7
20190116054303 56 0.0 0.0 0.00 0.00 0.00 25 1006.8
20190116051306 56 0.0 0.0 0.00 0.00 0.00 25 1006.4
20190116044304 55 0.0 0.0 0.00 0.00 0.00 26 1005.8
20190116041302 55 0.0 0.0 0.00 0.00 0.00 26 1005.6
20190116034305 54 0.0 0.0 0.00 0.00 0.00 28 1005.7
20190116031306 53 0.0 0.0 0.00 0.00 0.00 28 1006.0
20190116024304 51 0.0 0.0 0.00 0.00 0.00 30 1006.3
20190116021306 49 0.0 0.0 0.00 0.00 0.00 42 1006.6
20190116014303 48 0.0 0.0 0.00 0.00 0.00 48 1006.8
20190116011302 47 0.0 0.0 0.00 0.00 0.00 51 1006.7
20190116004304 46 0.0 0.0 0.00 0.00 0.00 57 1006.6
20190116001306 44 0.0 0.0 0.00 0.00 0.00 65 1006.2
20190115234304 42 0.0 0.0 0.00 0.00 0.00 68 1006.0
20190115231306 41 0.0 0.0 0.00 0.00 0.00 69 1005.8
20190115224303 41 0.0 0.0 0.00 0.00 0.00 69 1005.5
20190115221303 41 0.0 0.0 0.00 0.00 0.00 69 1004.9
20190115214304 40 0.0 0.0 0.00 0.00 0.00 70 1004.4
20190115211306 40 0.0 0.0 0.00 0.00 0.00 71 1003.9
20190115204305 40 0.0 0.0 0.00 0.00 0.00 71 1003.5
20190115201303 41 0.0 0.0 0.00 0.00 0.00 71 1002.9
20190115194304 40 0.0 0.0 0.00 0.00 0.00 71 1002.6
20190115191305 41 0.0 0.0 0.00 0.00 0.00 70 1002.6
20190115184303 41 0.0 0.0 0.00 0.00 0.00 69 1002.4
20190115181305 41 0.0 0.0 0.00 0.00 0.00 67 1002.6
20190115174304 41 0.0 0.0 0.00 0.00 0.00 67 1002.8
20190115171304 42 0.0 0.0 0.00 0.00 0.00 66 1003.1
20190115164306 42 0.0 0.0 0.00 0.00 0.00 66 1003.5